Location: Newark
(36.2667°N, 50.0000°E)
Time: 03:51:04
(UTC+00:00)

Hubble Space Telescope - Visible Passes

Search period start: 25 September 2020 00:00
Search period end: 05 October 2020 00:00
Orbit: 536 x 540 km, 28.5° (Epoch: 24 September)

Date Brightness Start Highest point End Pass type
(mag) Time Alt. Az. Time Alt. Az. Time Alt. Az.
25 Sep 3.0 01:29:41 10° SSW 01:32:18 16° SSE 01:34:55 10° SE visible
26 Sep 2.8 01:19:07 12° SSW 01:21:29 19° SSE 01:24:24 10° ESE visible
27 Sep 2.6 01:09:06 17° SSW 01:10:40 21° SSE 01:13:47 10° ESE visible
28 Sep 2.3 00:59:04 22° S 00:59:51 23° S 01:03:08 10° ESE visible
29 Sep 2.2 00:49:00 25° S 00:49:03 25° S 00:52:27 10° ESE visible
30 Sep 2.4 00:38:57 25° SSE 00:38:57 25° SSE 00:41:43 10° ESE visible
01 Oct 2.7 00:28:54 22° SE 00:28:54 22° SE 00:30:58 10° ESE visible
01 Oct 2.4 02:04:56 10° WSW 02:08:09 22° S 02:11:22 10° SE visible
02 Oct 3.1 00:18:52 17° SE 00:18:52 17° SE 00:20:10 10° ESE visible
02 Oct 2.5 01:54:17 10° WSW 01:57:19 20° SSW 02:00:22 10° SE visible
03 Oct 3.5 00:08:51 13° SE 00:08:51 13° SE 00:09:22 10° SE visible
03 Oct 2.6 01:44:12 12° SW 01:46:31 18° SSW 01:49:17 10° SSE visible
04 Oct 2.8 01:34:14 13° SW 01:35:40 15° SSW 01:38:06 10° SSE visible
